Flag for France Weather past 2 weeks in Poitiers, France

52 °F

Broken clouds.

Feels Like: 48 °F
Forecast: 44 / 55 °F
Wind: 10 mph from Southwest

Location: Poitiers Airport

Current Time: Nov 30, 2015 at 10:04:47 AM

Latest Report: Nov 30, 2015 at 9:30 AM

Visibility: N/A

Pressure: 30.48 "Hg

Humidity: 94%

Dew point: 50 °F

Location of PoitiersLocation

Historic Weather in Poitiers — Graph


Poitiers temperature yesterday

Maximum temperature yesterday: 55 °F (at 11:30 AM)
Minimum temperature yesterday: 45 °F (at 12:00 AM)
Average temperature yesterday: 52 °F

Past Weeks' High & Low Weather Summary

High63 °F (Nov 19, 12:30 PM)100% (Nov 15, 9:30 AM)30.48 "Hg (Nov 15, 9:30 AM)
Low27 °F (Nov 24, 2:00 AM)50% (Nov 28, 3:30 PM)29.71 "Hg (Nov 21, 4:30 AM)
Average48 °F88%30.13 "Hg
* Reported Nov 15 8:00 AM — Nov 30 8:30 AM, Poitiers, Weather by CustomWeather, © 2015

Note: Actual official high and low records may vary slightly from our data, if they occured in-between our weather recording intervals... More about our weather records


Poitiers weather history for previous 24 hours

Time TempWeatherWind HumidityBarometerVisibility
8:30 AM
Mon, Nov 30
52 °FLight rain. Partly sunny.14 mph94%30.48 "Hg4 mi
8:00 AM52 °FPassing clouds.9 mph94%30.48 "HgN/A
7:30 AM52 °FMostly cloudy.9 mph94%30.48 "HgN/A
7:00 AM52 °FOvercast.8 mph94%30.45 "HgN/A
6:30 AM52 °FMostly cloudy.7 mph88%30.45 "HgN/A
6:00 AM52 °FOvercast.7 mph94%30.45 "HgN/A
5:30 AM52 °FOvercast.9 mph88%30.45 "HgN/A
4:30 AM52 °FMostly cloudy.9 mph88%30.45 "HgN/A
4:00 AM52 °FMostly cloudy.9 mph88%30.45 "HgN/A
3:30 AM52 °FOvercast.10 mph88%30.45 "HgN/A
3:00 AM52 °FOvercast.13 mph88%30.45 "HgN/A
2:30 AM52 °FClear.10 mph88%30.45 "Hg10 mi
1:30 AM52 °FClear.10 mph88%30.45 "Hg10 mi
1:00 AM52 °FClear.9 mph88%30.45 "Hg10 mi
12:30 AM52 °FMostly cloudy.8 mph88%30.45 "HgN/A
12:00 AM52 °FMostly cloudy.9 mph88%30.45 "HgN/A
11:30 PM
Sun, Nov 29
52 °FOvercast.13 mph88%30.42 "HgN/A
11:00 PM52 °FMostly cloudy.13 mph88%30.42 "HgN/A
10:30 PM52 °FClear.10 mph88%30.42 "Hg10 mi
10:00 PM52 °FOvercast.10 mph88%30.42 "HgN/A
9:30 PM54 °FPartly cloudy.16 mph82%30.42 "HgN/A
9:00 PM54 °FPartly cloudy.13 mph82%30.42 "HgN/A
8:30 PM54 °FPartly cloudy.13 mph82%30.39 "HgN/A
8:00 PM54 °FOvercast.13 mph82%30.39 "HgN/A
7:30 PM54 °FMostly cloudy.14 mph77%30.39 "HgN/A
7:00 PM54 °FLight rain. Mostly cloudy.15 mph77%30.39 "HgN/A
6:30 PM54 °FMostly cloudy.14 mph72%30.36 "HgN/A
6:00 PM55 °FOvercast.14 mph67%30.36 "HgN/A
5:30 PM55 °FMostly cloudy.18 mph72%30.36 "HgN/A
5:00 PM55 °FCloudy.21 mph77%30.36 "HgN/A
4:30 PM55 °FSunny.18 mph77%30.33 "Hg10 mi
4:00 PM55 °FOvercast.18 mph77%30.33 "HgN/A
3:30 PM55 °FMore clouds than sun.20 mph77%30.33 "HgN/A
3:00 PM55 °FMore clouds than sun.18 mph77%30.33 "HgN/A
2:30 PM55 °FMostly cloudy.20 mph77%30.33 "HgN/A
2:00 PM55 °FPartly sunny.16 mph77%30.33 "HgN/A
1:30 PM55 °FScattered clouds.17 mph72%30.33 "HgN/A
1:00 PM55 °FMostly cloudy.13 mph77%30.33 "HgN/A
12:30 PM55 °FMore clouds than sun.16 mph82%30.33 "HgN/A
12:00 PM55 °FPartly sunny.16 mph82%30.33 "HgN/A
11:30 AM55 °FPartly sunny.16 mph82%30.33 "HgN/A
10:30 AM54 °FBroken clouds.15 mph88%30.33 "HgN/A
10:00 AM52 °FMore clouds than sun.13 mph94%30.33 "HgN/A
Weather by CustomWeather, © 2015

See weather overviewHow to use our weather pages